{"data":{"norad_id":66241,"epoch":"2026-09-19T22:08:42.817056Z","epoch_age_seconds":146560,"freshness":"FRESH","line1":"1 66241U 25245H   26262.92271779  .00005619  00000+0  17730-3 0  9990","line2":"2 66241  53.1584 100.3445 0001116  93.7952 266.3178 15.34400970 50964","mean_motion":15.3440097,"eccentricity":0.0001116,"inclination_deg":53.1584,"raan_deg":100.3445,"arg_perigee_deg":93.7952,"mean_anomaly_deg":266.3178,"bstar":0.0001773,"rev_number":5096,"period_min":93.847698753736,"perigee_km":461.93691971515,"apogee_km":463.46379461327,"semimajor_km":6840.8373571642,"source":"CELESTRAK","updated_at":"2026-09-21T09:00:35.847098Z"}}